DW7779 Weather Reports


Display with metric or nautical units.
time (UTC)temp
F
wind
direction
speed
MPH
gust
MPH
rain 1hr
in
rain 24hr
in
rain mn
in
humidity
%
barometer
mb
20220812034506 51 0.0 0.0 0.03 0.05 0.05 90 1010.6
20220812033116 51 0.0 2.0 0.02 0.04 0.04 90 1010.9
20220812031704 52 0.0 1.0 0.02 0.03 0.03 89 1011.0
20220812030059 52 0.0 1.0 0.02 0.02 0.02 86 1011.0
20220812024634 52 0.0 2.0 0.02 0.02 0.02 84 1011.1
20220812023108 52 0.0 4.0 0.01 0.02 0.02 83 1011.4
20220812021557 54 1.0 4.0 0.01 0.02 0.02 81 1011.9
20220812020056 54 0.0 1.0 0.00 0.01 0.01 76 1011.9
20220812014635 54 0.0 2.0 0.00 0.02 0.01 77 1011.6
20220812013052 54 0.0 0.0 0.00 0.02 0.01 80 1011.5
20220812011611 53 0.0 1.0 0.00 0.02 0.01 81 1011.8
20220812010048 53 0.0 1.0 0.00 0.02 0.01 81 1011.9
20220812004545 53 0.0 2.0 0.00 0.02 0.01 83 1011.9
20220812003042 52 1.0 3.0 0.00 0.02 0.01 84 1011.9
20220812001545 51 0.0 3.0 0.00 0.02 0.01 85 1011.8
20220812000039 51 0.0 2.0 0.00 0.02 0.01 85 1011.9
20220811234604 51 0.0 3.0 0.00 0.02 0.01 87 1011.8
20220811233058 51 0.0 2.0 0.00 0.02 0.01 84 1012.0
20220811231538 51 0.0 1.0 0.00 0.02 0.01 83 1012.0
20220811230045 51 0.0 3.0 0.00 0.02 0.01 83 1011.9
20220811224559 50 0.0 3.0 0.00 0.02 0.01 83 1011.9
20220811223026 50 1.0 3.0 0.00 0.02 0.01 85 1011.8
20220811221558 49 0.0 2.0 0.00 0.02 0.01 87 1011.7
20220811220058 48 0.0 2.0 0.01 0.02 0.01 89 1011.7
20220811214520 48 0.0 0.0 0.01 0.02 0.01 90 1011.6
20220811213017 48 0.0 1.0 0.01 0.02 0.01 90 1011.7
20220811211514 48 0.0 2.0 0.01 0.02 0.01 91 1011.0
20220811210011 48 0.0 1.0 0.00 0.01 0.00 91 1011.5
20220811204511 48 0.0 1.0 0.00 0.01 0.00 91 1011.4
20220811203009 48 0.0 0.0 0.00 0.01 0.00 91 1011.3
20220811201558 48 0.0 0.0 0.00 0.01 0.00 91 1011.3
20220811200054 48 0.0 0.0 0.00 0.01 0.00 91 1011.2
20220811194603 48 0.0 1.0 0.00 0.01 0.00 92 1011.2
20220811193046 47 0.0 2.0 0.00 0.01 0.00 92 1011.0
20220811191544 46 0.0 1.0 0.00 0.01 0.00 93 1010.9
20220811190042 46 0.0 1.0 0.00 0.01 0.00 92 1010.7
20220811184545 46 0.0 1.0 0.00 0.01 0.00 93 1010.8
20220811183048 46 0.0 1.0 0.00 0.01 0.00 92 1010.8
20220811181545 46 0.0 1.0 0.00 0.01 0.00 93 1010.9
20220811180038 46 0.0 0.0 0.00 0.01 0.00 92 1011.0
20220811174610 46 0.0 0.0 0.00 0.01 0.00 92 1011.1
20220811173037 45 0.0 1.0 0.00 0.01 0.00 93 1011.1
20220811171534 45 0.0 0.0 0.00 0.01 0.00 92 1011.2
20220811170031 45 0.0 1.0 0.00 0.01 0.00 92 1011.3
20220811164529 46 0.0 1.0 0.00 0.01 0.00 91 1011.4
20220811163026 46 0.0 1.0 0.00 0.01 0.00 91 1011.7
20220811161533 46 0.0 2.0 0.00 0.01 0.00 90 1011.7
20220811160029 47 0.0 2.0 0.00 0.01 0.00 90 1011.9
20220811154545 47 0.0 1.0 0.00 0.01 0.00 90 1011.9
20220811153023 47 0.0 2.0 0.00 0.01 0.00 90 1011.9
20220811151514 47 0.0 2.0 0.00 0.01 0.00 90 1012.0
20220811150043 46 0.0 1.0 0.00 0.01 0.00 90 1011.9
20220811144511 46 0.0 2.0 0.00 0.01 0.00 89 1012.0
20220811143017 47 0.0 2.0 0.00 0.01 0.00 89 1011.8
20220811141505 47 0.0 2.0 0.00 0.01 0.00 90 1011.9
20220811140006 46 0.0 3.0 0.00 0.01 0.00 90 1012.0
20220811134510 46 0.0 2.0 0.00 0.01 0.01 90 1012.1
20220811133004 46 0.0 2.0 0.00 0.01 0.01 90 1012.1
20220811131504 46 0.0 2.0 0.00 0.01 0.01 91 1012.2
20220811130110 45 0.0 2.0 0.00 0.01 0.01 91 1012.1
20220811124624 45 0.0 1.0 0.00 0.01 0.01 90 1012.2
20220811123108 45 0.0 1.0 0.00 0.01 0.01 90 1012.3
20220811121558 46 0.0 1.0 0.00 0.01 0.01 89 1012.2
20220811120057 46 0.0 1.0 0.00 0.01 0.01 89 1012.2
20220811114556 46 0.0 1.0 0.00 0.01 0.01 89 1012.2
20220811113138 46 0.0 1.0 0.00 0.01 0.01 88 1012.2
20220811111616 46 0.0 1.0 0.00 0.01 0.01 87 1012.2
20220811110103 46 0.0 1.0 0.00 0.01 0.01 86 1012.1
20220811104622 46 0.0 1.0 0.00 0.01 0.01 85 1012.1
20220811103051 47 0.0 3.0 0.00 0.01 0.01 85 1011.9
20220811101557 47 0.0 2.0 0.00 0.01 0.01 84 1011.8
20220811100108 47 0.0 2.0 0.00 0.01 0.01 83 1011.7
20220811094552 48 0.0 1.0 0.00 0.01 0.01 81 1011.6
20220811093046 49 0.0 3.0 0.00 0.01 0.01 80 1011.5
20220811091542 49 0.0 1.0 0.00 0.01 0.01 77 1011.4
20220811090104 50 0.0 1.0 0.00 0.01 0.01 76 1011.3
20220811084541 50 0.0 1.0 0.00 0.01 0.01 76 1011.2
20220811083042 50 0.0 1.0 0.00 0.01 0.01 76 1011.1
20220811081618 50 0.0 2.0 0.00 0.01 0.01 76 1011.0
20220811080044 51 0.0 2.0 0.00 0.01 0.01 74 1010.8
20220811074551 52 0.0 1.0 0.00 0.01 0.01 72 1010.6
20220811073105 54 0.0 1.0 0.00 0.01 0.01 69 1010.6
20220811071549 55 0.0 3.0 0.00 0.01 0.01 65 1010.7
20220811070101 56 2.0 6.0 0.00 0.01 0.01 64 1010.6
20220811064551 57 304 1.0 6.0 0.00 0.01 0.01 63 1010.6
20220811063053 58 348 3.0 9.0 0.00 0.01 0.01 60 1010.6
20220811061548 58 4.0 10.0 0.00 0.01 0.01 59 1010.4
20220811060038 59 4.0 12.0 0.00 0.01 0.01 58 1010.2
20220811054537 59 2.0 10.0 0.00 0.01 0.01 59 1010.3
20220811053033 59 2.0 11.0 0.00 0.01 0.01 57 1010.2
20220811051538 59 2.0 19.0 0.00 0.01 0.01 60 1010.3
20220811050029 59 3.0 11.0 0.00 0.01 0.01 60 1010.3
20220811044529 59 2.0 9.0 0.00 0.01 0.01 65 1010.3
20220811043023 57 1.0 4.0 0.00 0.01 0.01 69 1010.4
20220811041519 57 1.0 3.0 0.00 0.01 0.01 70 1010.4
20220811040030 56 0.0 3.0 0.00 0.01 0.01 75 1010.7